User: anonymous
Location: Melbourne
(37.8170°S, 144.9670°E)
Time: 08:36:23
(UTC+11:00)
Language:

Cosmos 962 Rocket - Orbit

View from above orbital plane
View from above orbital plane
View from above satellite
View from above satellite

Ground track
Ground track

The orbit data is extracted from the following two-line orbital elements,

1 10461U 77107B   14293.76510274  .00000116  00000-0  10242-3 0  6644
2 10461 082.9519 013.7933 0032543 345.7476 128.7100 13.76701662857241
Epoch (UTC): 20 October 2014 18:21:44
Eccentricity: 0.0032543
inclination: 82.9519°
perigee height: 951 km
apogee height: 999 km
right ascension of ascending node: 13.7933°
argument of perigee: 345.7476°
revolutions per day: 13.76701662
mean anomaly at epoch: 128.7100°
orbit number at epoch: 85724

The dashed part of the orbit path shows where the satellite is in the earth's shadow,  

DLR